Time,TemperatureF,DewpointF,PressureIn,WindDirection,WindDirectionDegrees,WindSpeedMPH,WindSpeedGustMPH,Humidity,HourlyPrecipIn,Conditions,Clouds,dailyrainin,SolarRadiationWatts/m^2,SoftwareType,DateUTC
2013-09-27 00:00:00,59.1,55.5,30.19,NE,40,0.0,0.0,88,0.00,,SCT,0.00,0.00,VWS V14.01,2013-09-27 04:00:00,
2013-09-27 00:01:00,58.5,55.3,30.19,NE,41,0.0,0.0,89,0.00,,SCT,0.00,0.00,VWS V14.01,2013-09-27 04:01:00,
2013-09-27 00:06:00,58.2,55.3,30.19,NE,40,0.0,0.0,90,0.00,,SCT,0.00,0.00,VWS V14.01,2013-09-27 04:06:00,
2013-09-27 00:11:00,58.1,55.2,30.19,NE,41,0.0,0.0,90,0.00,,SCT,0.00,0.00,VWS V14.01,2013-09-27 04:11:00,
2013-09-27 00:16:00,57.9,55.0,30.19,NE,40,0.0,0.0,90,0.00,,SCT,0.00,0.00,VWS V14.01,2013-09-27 04:16:00,
2013-09-27 00:21:00,57.8,55.2,30.19,NE,40,0.0,0.0,91,0.00,,SCT,0.00,0.00,VWS V14.01,2013-09-27 04:21:00,
2013-09-27 00:26:00,57.6,55.0,30.19,NE,41,0.0,0.0,91,0.00,,SCT,0.00,0.00,VWS V14.01,2013-09-27 04:26:00,
2013-09-27 00:31:00,57.5,54.9,30.19,NE,41,0.0,0.0,91,0.00,,SCT,0.00,0.00,VWS V14.01,2013-09-27 04:31:00,
2013-09-27 00:36:00,57.4,55.1,30.19,NE,40,0.0,0.0,92,0.00,,SCT,0.00,0.00,VWS V14.01,2013-09-27 04:36:00,
2013-09-27 00:41:00,57.3,55.0,30.19,NE,41,0.0,0.0,92,0.00,,SCT,0.00,0.00,VWS V14.01,2013-09-27 04:41:00,
2013-09-27 00:46:00,57.4,55.4,30.19,NE,41,0.0,0.0,93,0.00,,SCT,0.00,0.00,VWS V14.01,2013-09-27 04:46:00,
2013-09-27 00:51:00,57.5,55.5,30.20,NE,40,0.0,0.0,93,0.00,,SCT,0.00,0.00,VWS V14.01,2013-09-27 04:51:00,
2013-09-27 00:56:00,57.7,55.7,30.19,NE,41,0.0,0.0,93,0.00,,SCT,0.00,0.00,VWS V14.01,2013-09-27 04:56:00,
2013-09-27 01:00:00,57.6,55.6,30.20,NE,40,0.0,0.0,93,0.00,,SCT,0.00,0.00,VWS V14.01,2013-09-27 05:00:00,
2013-09-27 01:01:00,57.8,55.8,30.20,NE,41,0.0,0.0,93,0.00,,SCT,0.00,0.00,VWS V14.01,2013-09-27 05:01:00,
2013-09-27 01:06:00,57.7,55.7,30.20,NE,41,0.0,0.0,93,0.00,,SCT,0.00,0.00,VWS V14.01,2013-09-27 05:06:00,
2013-09-27 01:11:00,57.7,55.7,30.20,NE,40,0.0,0.0,93,0.00,,SCT,0.00,0.00,VWS V14.01,2013-09-27 05:11:00,
2013-09-27 01:16:00,57.6,55.6,30.20,NE,41,0.0,0.0,93,0.00,,SCT,0.00,0.00,VWS V14.01,2013-09-27 05:16:00,
2013-09-27 01:21:00,57.4,55.1,30.20,NE,41,0.0,0.0,92,0.00,,SCT,0.00,0.00,VWS V14.01,2013-09-27 05:21:00,
2013-09-27 01:26:00,57.2,55.2,30.20,NE,41,0.0,0.0,93,0.00,,SCT,0.00,0.00,VWS V14.01,2013-09-27 05:26:00,
2013-09-27 01:31:00,57.2,55.2,30.20,NE,40,0.0,0.0,93,0.00,,SCT,0.00,0.00,VWS V14.01,2013-09-27 05:31:00,
2013-09-27 01:36:00,57.1,55.1,30.21,NE,41,0.0,0.0,93,0.00,,SCT,0.00,0.00,VWS V14.01,2013-09-27 05:36:00,
2013-09-27 01:41:00,56.9,54.9,30.21,NE,40,0.0,0.0,93,0.00,,SCT,0.00,0.00,VWS V14.01,2013-09-27 05:41:00,
2013-09-27 01:46:00,56.8,54.8,30.21,NE,41,0.0,0.0,93,0.00,,SCT,0.00,0.00,VWS V14.01,2013-09-27 05:46:00,
2013-09-27 01:51:00,56.7,54.7,30.21,NE,41,0.0,0.0,93,0.00,,SCT,0.00,0.00,VWS V14.01,2013-09-27 05:51:00,
2013-09-27 01:56:00,56.5,54.5,30.21,NE,41,0.0,0.0,93,0.00,,SCT,0.00,0.00,VWS V14.01,2013-09-27 05:56:00,
2013-09-27 02:00:00,56.6,54.6,30.21,NE,41,0.0,0.0,93,0.00,,SCT,0.00,0.00,VWS V14.01,2013-09-27 06:00:00,
2013-09-27 02:01:00,56.4,54.4,30.21,NE,41,0.0,0.0,93,0.00,,SCT,0.00,0.00,VWS V14.01,2013-09-27 06:01:00,
2013-09-27 02:06:00,56.2,53.9,30.21,NE,41,0.0,0.0,92,0.00,,SCT,0.00,0.00,VWS V14.01,2013-09-27 06:06:00,
2013-09-27 02:11:00,56.1,54.1,30.21,NE,41,0.0,0.0,93,0.00,,SCT,0.00,0.00,VWS V14.01,2013-09-27 06:11:00,
2013-09-27 02:16:00,56.0,54.0,30.21,NE,41,0.0,0.0,93,0.00,,SCT,0.00,0.00,VWS V14.01,2013-09-27 06:16:00,
2013-09-27 02:21:00,56.0,54.0,30.21,NE,40,0.0,0.0,93,0.00,,SCT,0.00,0.00,VWS V14.01,2013-09-27 06:21:00,
2013-09-27 02:26:00,55.9,53.9,30.21,NE,41,0.0,0.0,93,0.00,,SCT,0.00,0.00,VWS V14.01,2013-09-27 06:26:00,
2013-09-27 02:31:00,55.8,53.8,30.21,NE,41,0.0,0.0,93,0.00,,SCT,0.00,0.00,VWS V14.01,2013-09-27 06:31:00,
2013-09-27 02:36:00,55.8,53.8,30.21,NE,41,0.0,0.0,93,0.00,,SCT,0.00,0.00,VWS V14.01,2013-09-27 06:36:00,
2013-09-27 02:41:00,55.8,54.1,30.21,NE,41,0.0,0.0,94,0.00,,SCT,0.00,0.00,VWS V14.01,2013-09-27 06:41:00,
2013-09-27 02:46:00,55.7,54.0,30.21,NE,40,0.0,0.0,94,0.00,,SCT,0.00,0.00,VWS V14.01,2013-09-27 06:46:00,
2013-09-27 02:51:00,55.7,54.0,30.21,NE,40,0.0,0.0,94,0.00,,SCT,0.00,0.00,VWS V14.01,2013-09-27 06:51:00,
2013-09-27 02:56:00,55.7,54.0,30.21,NE,40,0.0,0.0,94,0.00,,SCT,0.00,0.00,VWS V14.01,2013-09-27 06:56:00,
2013-09-27 03:00:00,55.7,54.0,30.21,NE,41,0.0,0.0,94,0.00,,SCT,0.00,0.00,VWS V14.01,2013-09-27 07:00:00,
2013-09-27 03:01:00,55.6,53.9,30.21,NE,41,0.0,0.0,94,0.00,,SCT,0.00,0.00,VWS V14.01,2013-09-27 07:01:00,
2013-09-27 03:06:00,55.5,53.8,30.21,NE,41,0.0,0.0,94,0.00,,SCT,0.00,0.00,VWS V14.01,2013-09-27 07:06:00,
2013-09-27 03:11:00,55.4,53.7,30.21,NE,41,0.0,0.0,94,0.00,,SCT,0.00,0.00,VWS V14.01,2013-09-27 07:11:00,
2013-09-27 03:16:00,55.4,53.7,30.21,NE,40,0.0,0.0,94,0.00,,SCT,0.00,0.00,VWS V14.01,2013-09-27 07:16:00,
2013-09-27 03:21:00,55.3,53.6,30.21,NE,40,0.0,0.0,94,0.00,,SCT,0.00,0.00,VWS V14.01,2013-09-27 07:21:00,
2013-09-27 03:26:00,55.2,53.5,30.20,NE,41,0.0,0.0,94,0.00,,SCT,0.00,0.00,VWS V14.01,2013-09-27 07:26:00,
2013-09-27 03:31:00,55.3,53.6,30.20,NE,40,0.0,0.0,94,0.00,,SCT,0.00,0.00,VWS V14.01,2013-09-27 07:31:00,
2013-09-27 03:36:00,55.1,53.4,30.21,NE,40,0.0,0.0,94,0.00,,SCT,0.00,0.00,VWS V14.01,2013-09-27 07:36:00,
2013-09-27 03:41:00,55.1,53.7,30.20,NE,41,0.0,0.0,95,0.00,,SCT,0.00,0.00,VWS V14.01,2013-09-27 07:41:00,
2013-09-27 03:46:00,55.0,53.6,30.20,NE,40,0.0,0.0,95,0.00,,SCT,0.00,0.00,VWS V14.01,2013-09-27 07:46:00,
2013-09-27 03:49:00,55.0,53.6,30.20,NE,40,0.0,0.0,95,0.00,,SCT,0.00,0.00,VWS V14.01,2013-09-27 07:49:00,
2013-09-27 03:54:00,55.0,53.6,30.20,NE,41,0.0,0.0,95,0.00,,SCT,0.00,0.00,VWS V14.01,2013-09-27 07:54:00,
2013-09-27 03:59:00,55.1,53.7,30.20,NE,40,0.0,0.0,95,0.00,,SCT,0.00,0.00,VWS V14.01,2013-09-27 07:59:00,
2013-09-27 04:00:00,55.0,53.6,30.20,NE,40,0.0,0.0,95,0.00,,SCT,0.00,0.00,VWS V14.01,2013-09-27 08:00:00,
2013-09-27 04:04:00,55.2,53.8,30.20,NE,41,0.0,0.0,95,0.00,,SCT,0.00,0.00,VWS V14.01,2013-09-27 08:04:00,
2013-09-27 04:09:00,55.3,53.9,30.20,NE,40,0.0,0.0,95,0.00,,SCT,0.00,0.00,VWS V14.01,2013-09-27 08:09:00,
2013-09-27 04:14:00,55.2,53.8,30.21,NE,41,0.0,0.0,95,0.00,,SCT,0.00,0.00,VWS V14.01,2013-09-27 08:14:00,
2013-09-27 04:19:00,55.1,53.7,30.20,NE,40,0.0,0.0,95,0.00,,SCT,0.00,0.00,VWS V14.01,2013-09-27 08:19:00,
2013-09-27 04:23:00,55.0,53.6,30.21,NE,41,0.0,0.0,95,0.00,,SCT,0.00,0.00,VWS V14.01,2013-09-27 08:23:00,
2013-09-27 04:28:00,54.9,53.5,30.20,NE,41,0.0,0.0,95,0.00,,SCT,0.00,0.00,VWS V14.01,2013-09-27 08:28:00,
2013-09-27 04:33:00,54.9,53.5,30.21,NE,41,0.0,0.0,95,0.00,,SCT,0.00,0.00,VWS V14.01,2013-09-27 08:33:00,
2013-09-27 04:38:00,54.9,53.5,30.21,NE,41,0.0,0.0,95,0.00,,SCT,0.00,0.00,VWS V14.01,2013-09-27 08:38:00,
2013-09-27 04:43:00,54.6,53.2,30.21,NE,41,0.0,0.0,95,0.00,,SCT,0.00,0.00,VWS V14.01,2013-09-27 08:43:00,
2013-09-27 04:48:00,54.5,53.4,30.21,NE,41,0.0,0.0,96,0.00,,SCT,0.00,0.00,VWS V14.01,2013-09-27 08:48:00,
2013-09-27 04:53:00,54.5,53.1,30.21,NE,40,0.0,0.0,95,0.00,,SCT,0.00,0.00,VWS V14.01,2013-09-27 08:53:00,
2013-09-27 04:58:00,54.5,53.1,30.22,NE,40,0.0,0.0,95,0.00,,SCT,0.00,0.00,VWS V14.01,2013-09-27 08:58:00,
2013-09-27 05:00:00,54.5,53.1,30.21,NE,41,0.0,0.0,95,0.00,,SCT,0.00,0.00,VWS V14.01,2013-09-27 09:00:00,
2013-09-27 05:03:00,54.4,53.0,30.22,NE,40,0.0,0.0,95,0.00,,SCT,0.00,0.00,VWS V14.01,2013-09-27 09:03:00,
2013-09-27 05:08:00,54.3,52.9,30.22,NE,40,0.0,0.0,95,0.00,,SCT,0.00,0.00,VWS V14.01,2013-09-27 09:08:00,
2013-09-27 05:13:00,54.2,52.8,30.22,NE,41,0.0,0.0,95,0.00,,SCT,0.00,0.00,VWS V14.01,2013-09-27 09:13:00,
2013-09-27 05:18:00,54.1,53.0,30.22,NE,41,0.0,0.0,96,0.00,,SCT,0.00,0.00,VWS V14.01,2013-09-27 09:18:00,
2013-09-27 05:23:00,54.1,53.0,30.23,NE,41,0.0,0.0,96,0.00,,SCT,0.00,0.00,VWS V14.01,2013-09-27 09:23:00,
2013-09-27 05:28:00,54.0,52.9,30.23,NE,41,0.0,0.0,96,0.00,,SCT,0.00,0.00,VWS V14.01,2013-09-27 09:28:00,
2013-09-27 05:33:00,53.9,52.5,30.22,NE,41,0.0,0.0,95,0.00,,SCT,0.00,0.00,VWS V14.01,2013-09-27 09:33:00,
2013-09-27 05:38:00,53.9,52.8,30.22,NE,41,0.0,0.0,96,0.00,,SCT,0.00,0.00,VWS V14.01,2013-09-27 09:38:00,
2013-09-27 05:44:00,54.0,52.9,30.22,NE,41,0.0,0.0,96,0.00,,SCT,0.00,0.00,VWS V14.01,2013-09-27 09:44:00,
2013-09-27 05:49:00,54.0,52.9,30.23,NE,41,0.0,0.0,96,0.00,,SCT,0.00,0.00,VWS V14.01,2013-09-27 09:49:00,
2013-09-27 05:54:00,54.0,52.9,30.23,NE,41,0.0,0.0,96,0.00,,SCT,0.00,0.00,VWS V14.01,2013-09-27 09:54:00,
2013-09-27 05:59:00,54.0,52.9,30.23,NE,40,0.0,0.0,96,0.00,,SCT,0.00,0.00,VWS V14.01,2013-09-27 09:59:00,
2013-09-27 06:00:00,54.0,52.9,30.23,NE,40,0.0,0.0,96,0.00,,SCT,0.00,0.00,VWS V14.01,2013-09-27 10:00:00,
2013-09-27 06:04:00,54.1,53.0,30.23,NE,41,0.0,0.0,96,0.00,,SCT,0.00,0.00,VWS V14.01,2013-09-27 10:04:00,
2013-09-27 06:09:00,54.2,53.1,30.23,NE,41,0.0,0.0,96,0.00,,SCT,0.00,0.00,VWS V14.01,2013-09-27 10:09:00,
2013-09-27 06:14:00,54.1,53.0,30.23,NE,41,0.0,0.0,96,0.00,,SCT,0.00,0.00,VWS V14.01,2013-09-27 10:14:00,
2013-09-27 06:19:00,54.1,53.0,30.23,NE,41,0.0,0.0,96,0.00,,SCT,0.00,0.00,VWS V14.01,2013-09-27 10:19:00,
2013-09-27 06:24:00,54.2,53.1,30.23,NE,41,0.0,0.0,96,0.00,,SCT,0.00,0.00,VWS V14.01,2013-09-27 10:24:00,
2013-09-27 06:29:00,54.1,53.0,30.23,NE,41,0.0,0.0,96,0.00,,SCT,0.00,0.00,VWS V14.01,2013-09-27 10:29:00,
2013-09-27 06:34:00,54.1,53.0,30.23,NE,40,0.0,0.0,96,0.00,,SCT,0.00,0.00,VWS V14.01,2013-09-27 10:34:00,
2013-09-27 06:39:00,54.1,53.0,30.24,NE,40,0.0,0.0,96,0.00,,SCT,0.00,0.00,VWS V14.01,2013-09-27 10:39:00,
2013-09-27 06:44:00,54.1,53.0,30.24,NE,41,0.0,0.0,96,0.00,,SCT,0.00,0.00,VWS V14.01,2013-09-27 10:44:00,
2013-09-27 06:49:00,54.0,52.9,30.24,NE,40,0.0,0.0,96,0.00,,SCT,0.00,0.00,VWS V14.01,2013-09-27 10:49:00,
2013-09-27 06:54:00,53.9,52.8,30.24,NE,41,0.0,0.0,96,0.00,,SCT,0.00,0.00,VWS V14.01,2013-09-27 10:54:00,
2013-09-27 06:59:00,53.8,52.7,30.24,NE,41,0.0,0.0,96,0.00,,SCT,0.00,0.00,VWS V14.01,2013-09-27 10:59:00,
2013-09-27 07:00:00,53.9,52.8,30.24,NE,40,0.0,0.0,96,0.00,,SCT,0.00,0.00,VWS V14.01,2013-09-27 11:00:00,
2013-09-27 07:04:00,53.8,52.7,30.24,NE,40,0.0,0.0,96,0.00,,SCT,0.00,0.00,VWS V14.01,2013-09-27 11:04:00,
2013-09-27 07:09:00,53.6,52.5,30.25,NE,41,0.0,0.0,96,0.00,,SCT,0.00,0.00,VWS V14.01,2013-09-27 11:09:00,
2013-09-27 07:14:00,53.5,52.4,30.25,NE,41,0.0,0.0,96,0.00,,SCT,0.00,5.00,VWS V14.01,2013-09-27 11:14:00,
2013-09-27 07:19:00,53.3,52.2,30.25,NE,41,0.0,0.0,96,0.00,,SCT,0.00,9.00,VWS V14.01,2013-09-27 11:19:00,
2013-09-27 07:24:00,53.2,52.1,30.25,NE,41,0.0,0.0,96,0.00,,SCT,0.00,11.00,VWS V14.01,2013-09-27 11:24:00,
2013-09-27 07:29:00,53.0,51.9,30.25,NE,41,0.0,0.0,96,0.00,,SCT,0.00,12.00,VWS V14.01,2013-09-27 11:29:00,
2013-09-27 07:34:00,53.0,51.9,30.26,NE,41,0.0,0.0,96,0.00,,SCT,0.00,14.00,VWS V14.01,2013-09-27 11:34:00,
2013-09-27 07:39:00,53.0,51.9,30.26,NE,41,0.0,0.0,96,0.00,,SCT,0.00,47.00,VWS V14.01,2013-09-27 11:39:00,
2013-09-27 07:43:00,53.1,52.0,30.26,NE,41,0.0,0.0,96,0.00,,SCT,0.00,62.00,VWS V14.01,2013-09-27 11:43:00,
2013-09-27 07:48:00,53.2,52.1,30.26,NE,41,0.0,0.0,96,0.00,,SCT,0.00,76.00,VWS V14.01,2013-09-27 11:48:00,
2013-09-27 07:53:00,53.3,52.2,30.27,NE,41,0.0,0.0,96,0.00,,SCT,0.00,86.00,VWS V14.01,2013-09-27 11:53:00,
2013-09-27 07:58:00,53.6,52.5,30.27,NE,41,0.0,0.0,96,0.00,,SCT,0.00,102.00,VWS V14.01,2013-09-27 11:58:00,
2013-09-27 08:00:00,53.3,52.2,30.27,NE,41,0.0,0.0,96,0.00,,SCT,0.00,83.00,VWS V14.01,2013-09-27 12:00:00,
2013-09-27 08:03:00,53.9,53.1,30.27,NE,41,0.0,0.0,97,0.00,,SCT,0.00,116.00,VWS V14.01,2013-09-27 12:03:00,
2013-09-27 08:08:00,54.2,53.1,30.27,NE,41,0.0,0.0,96,0.00,,SCT,0.00,132.00,VWS V14.01,2013-09-27 12:08:00,
2013-09-27 08:13:00,54.8,54.0,30.27,NE,41,0.0,0.0,97,0.00,,SCT,0.00,146.00,VWS V14.01,2013-09-27 12:13:00,
2013-09-27 08:18:00,55.3,54.5,30.27,NE,41,0.0,0.0,97,0.00,,SCT,0.00,160.00,VWS V14.01,2013-09-27 12:18:00,
2013-09-27 08:23:00,55.7,54.9,30.27,NE,41,0.0,0.0,97,0.00,,SCT,0.00,172.00,VWS V14.01,2013-09-27 12:23:00,
2013-09-27 08:28:00,56.0,55.2,30.27,NE,41,0.0,0.0,97,0.00,,SCT,0.00,183.00,VWS V14.01,2013-09-27 12:28:00,
2013-09-27 08:33:00,56.5,55.7,30.27,NE,40,0.0,0.0,97,0.00,,SCT,0.00,199.00,VWS V14.01,2013-09-27 12:33:00,
2013-09-27 08:38:00,56.6,55.5,30.28,NE,41,0.0,0.0,96,0.00,,SCT,0.00,213.00,VWS V14.01,2013-09-27 12:38:00,
2013-09-27 08:43:00,56.8,55.7,30.28,NE,41,0.0,0.0,96,0.00,,SCT,0.00,229.00,VWS V14.01,2013-09-27 12:43:00,
2013-09-27 08:48:00,57.0,55.6,30.28,West,275,0.0,0.0,95,0.00,,SCT,0.00,244.00,VWS V14.01,2013-09-27 12:48:00,
2013-09-27 08:53:00,57.2,55.5,30.28,SW,224,0.0,0.0,94,0.00,,SCT,0.00,262.00,VWS V14.01,2013-09-27 12:53:00,
2013-09-27 08:58:00,57.4,55.7,30.28,SW,224,0.0,0.0,94,0.00,,SCT,0.00,279.00,VWS V14.01,2013-09-27 12:58:00,
2013-09-27 09:00:00,57.1,55.7,30.28,SW,224,0.0,0.0,95,0.00,,SCT,0.00,253.00,VWS V14.01,2013-09-27 13:00:00,
2013-09-27 09:03:00,57.8,55.8,30.29,SW,224,0.0,0.0,93,0.00,,SCT,0.00,299.00,VWS V14.01,2013-09-27 13:03:00,
2013-09-27 09:08:00,58.3,56.3,30.29,SW,232,0.0,0.0,93,0.00,,SCT,0.00,313.00,VWS V14.01,2013-09-27 13:08:00,
2013-09-27 09:13:00,58.8,56.5,30.29,WSW,237,0.0,0.0,92,0.00,,SCT,0.00,327.00,VWS V14.01,2013-09-27 13:13:00,
2013-09-27 09:18:00,59.4,57.1,30.29,SW,234,0.0,0.0,92,0.00,,SCT,0.00,341.00,VWS V14.01,2013-09-27 13:18:00,
2013-09-27 09:23:00,59.8,56.9,30.29,SW,232,0.0,0.0,90,0.00,,SCT,0.00,353.00,VWS V14.01,2013-09-27 13:23:00,
2013-09-27 09:28:00,60.3,57.0,30.30,WSW,238,0.0,0.0,89,0.00,,SCT,0.00,366.00,VWS V14.01,2013-09-27 13:28:00,
2013-09-27 09:33:00,60.8,57.2,30.30,WSW,245,0.0,0.0,88,0.00,,SCT,0.00,378.00,VWS V14.01,2013-09-27 13:33:00,
2013-09-27 09:38:00,61.1,56.9,30.29,WSW,242,0.0,0.0,86,0.00,,SCT,0.00,394.00,VWS V14.01,2013-09-27 13:38:00,
2013-09-27 09:43:00,61.3,57.1,30.30,West,263,0.0,0.0,86,0.00,,SCT,0.00,406.00,VWS V14.01,2013-09-27 13:43:00,
2013-09-27 09:48:00,61.6,57.4,30.30,WSW,242,0.0,0.0,86,0.00,,SCT,0.00,420.00,VWS V14.01,2013-09-27 13:48:00,
2013-09-27 09:53:00,62.0,57.5,30.30,SW,221,0.0,0.0,85,0.00,,SCT,0.00,432.00,VWS V14.01,2013-09-27 13:53:00,
2013-09-27 09:58:00,62.6,58.4,30.30,WSW,248,0.0,0.0,86,0.00,,SCT,0.00,443.00,VWS V14.01,2013-09-27 13:58:00,
2013-09-27 10:00:00,61.8,57.2,30.30,SW,221,0.0,0.0,85,0.00,,SCT,0.00,429.00,VWS V14.01,2013-09-27 14:00:00,
2013-09-27 10:03:00,63.4,58.5,30.30,WSW,242,0.0,0.0,84,0.00,,SCT,0.00,457.00,VWS V14.01,2013-09-27 14:03:00,
2013-09-27 10:08:00,63.8,58.5,30.30,SW,214,0.0,0.0,83,0.00,,SCT,0.00,468.00,VWS V14.01,2013-09-27 14:08:00,
2013-09-27 10:13:00,64.7,59.1,30.30,SE,126,0.0,0.0,82,0.00,,SCT,0.00,480.00,VWS V14.01,2013-09-27 14:13:00,
2013-09-27 10:18:00,64.9,58.2,30.30,SE,127,0.0,0.0,79,0.00,,SCT,0.00,490.00,VWS V14.01,2013-09-27 14:18:00,
2013-09-27 10:23:00,65.4,58.4,30.30,ESE,121,0.0,0.0,78,0.00,,SCT,0.00,503.00,VWS V14.01,2013-09-27 14:23:00,
2013-09-27 10:28:00,66.2,59.2,30.30,SSE,167,0.0,0.0,78,0.00,,SCT,0.00,513.00,VWS V14.01,2013-09-27 14:28:00,
2013-09-27 10:33:00,66.7,58.5,30.30,SE,128,0.0,0.0,75,0.00,,SCT,0.00,522.00,VWS V14.01,2013-09-27 14:33:00,
2013-09-27 10:38:00,67.0,58.5,30.30,SSE,167,0.0,0.0,74,0.00,,SCT,0.00,533.00,VWS V14.01,2013-09-27 14:38:00,
2013-09-27 10:43:00,67.3,58.7,30.30,SSE,163,0.0,0.0,74,0.00,,SCT,0.00,543.00,VWS V14.01,2013-09-27 14:43:00,
2013-09-27 10:48:00,68.1,59.1,30.30,ENE,61,0.0,0.0,73,0.00,,SCT,0.00,552.00,VWS V14.01,2013-09-27 14:48:00,
2013-09-27 10:53:00,68.9,59.5,30.30,North,349,0.0,0.0,72,0.00,,SCT,0.00,564.00,VWS V14.01,2013-09-27 14:53:00,
2013-09-27 10:58:00,69.0,59.2,30.30,SSW,200,0.0,0.0,71,0.00,,SCT,0.00,577.00,VWS V14.01,2013-09-27 14:58:00,
2013-09-27 11:00:00,68.6,59.2,30.30,NE,38,0.0,0.0,72,0.00,,SCT,0.00,561.00,VWS V14.01,2013-09-27 15:00:00,
2013-09-27 11:03:00,69.1,60.1,30.30,SSW,198,0.0,0.0,73,0.00,,SCT,0.00,582.00,VWS V14.01,2013-09-27 15:03:00,
2013-09-27 11:08:00,69.5,60.1,30.30,SW,218,0.0,0.0,72,0.00,,SCT,0.00,591.00,VWS V14.01,2013-09-27 15:08:00,
2013-09-27 11:13:00,69.5,59.7,30.30,SSW,195,0.0,0.0,71,0.00,,SCT,0.00,596.00,VWS V14.01,2013-09-27 15:13:00,
2013-09-27 11:18:00,69.7,59.5,30.30,South,176,0.0,0.0,70,0.00,,SCT,0.00,603.00,VWS V14.01,2013-09-27 15:18:00,
2013-09-27 11:23:00,70.1,59.9,30.30,WSW,247,0.0,0.0,70,0.00,,SCT,0.00,624.00,VWS V14.01,2013-09-27 15:23:00,
2013-09-27 11:28:00,70.7,60.0,30.30,SSW,192,0.0,0.0,69,0.00,,SCT,0.00,633.00,VWS V14.01,2013-09-27 15:28:00,
2013-09-27 11:33:00,71.2,60.1,30.30,SSE,167,0.0,0.0,68,0.00,,SCT,0.00,642.00,VWS V14.01,2013-09-27 15:33:00,
2013-09-27 11:38:00,71.1,60.4,30.30,South,186,0.0,0.0,69,0.00,,SCT,0.00,656.00,VWS V14.01,2013-09-27 15:38:00,
2013-09-27 11:43:00,71.2,60.1,30.29,SW,225,0.0,0.0,68,0.00,,SCT,0.00,635.00,VWS V14.01,2013-09-27 15:43:00,
2013-09-27 11:48:00,70.8,59.3,30.30,SSW,209,0.0,0.0,67,0.00,,SCT,0.00,243.00,VWS V14.01,2013-09-27 15:48:00,
2013-09-27 11:53:00,70.4,59.3,30.30,SW,234,0.0,0.0,68,0.00,,SCT,0.00,225.00,VWS V14.01,2013-09-27 15:53:00,
2013-09-27 11:58:00,70.2,59.6,30.30,SW,234,0.0,0.0,69,0.00,,SCT,0.00,693.00,VWS V14.01,2013-09-27 15:58:00,
2013-09-27 12:00:00,70.5,59.4,30.30,SW,220,0.0,0.0,68,0.00,,SCT,0.00,318.00,VWS V14.01,2013-09-27 16:00:00,
2013-09-27 12:03:00,70.2,59.6,30.29,WSW,252,0.0,0.0,69,0.00,,SCT,0.00,192.00,VWS V14.01,2013-09-27 16:03:00,
2013-09-27 12:08:00,70.8,60.5,30.29,South,180,0.0,0.0,70,0.00,,SCT,0.00,693.00,VWS V14.01,2013-09-27 16:08:00,
2013-09-27 12:13:00,71.0,59.9,30.29,SSW,206,0.0,0.0,68,0.00,,SCT,0.00,554.00,VWS V14.01,2013-09-27 16:13:00,
2013-09-27 12:18:00,70.8,60.1,30.29,West,264,0.0,0.0,69,0.00,,SCT,0.00,322.00,VWS V14.01,2013-09-27 16:18:00,
2013-09-27 12:23:00,70.9,59.8,30.29,WNW,284,0.0,0.0,68,0.00,,SCT,0.00,679.00,VWS V14.01,2013-09-27 16:23:00,
2013-09-27 12:28:00,71.4,59.5,30.29,SSW,202,0.0,0.0,66,0.00,,SCT,0.00,754.00,VWS V14.01,2013-09-27 16:28:00,
2013-09-27 12:33:00,71.7,60.2,30.29,West,263,0.0,0.0,67,0.00,,SCT,0.00,652.00,VWS V14.01,2013-09-27 16:33:00,
2013-09-27 12:38:00,72.0,59.6,30.29,SW,235,0.0,0.0,65,0.00,,SCT,0.00,338.00,VWS V14.01,2013-09-27 16:38:00,
2013-09-27 12:43:00,71.3,58.9,30.29,SW,229,0.0,0.0,65,0.00,,SCT,0.00,125.00,VWS V14.01,2013-09-27 16:43:00,
2013-09-27 12:48:00,70.8,59.3,30.29,SW,217,0.0,0.0,67,0.00,,SCT,0.00,169.00,VWS V14.01,2013-09-27 16:48:00,
2013-09-27 12:53:00,70.5,59.0,30.29,SW,228,0.0,0.0,67,0.00,,SCT,0.00,137.00,VWS V14.01,2013-09-27 16:53:00,
2013-09-27 12:58:00,70.4,59.8,30.28,WSW,241,0.0,0.0,69,0.00,,SCT,0.00,84.00,VWS V14.01,2013-09-27 16:58:00,
2013-09-27 13:00:00,70.6,59.1,30.29,SW,227,0.0,0.0,67,0.00,,SCT,0.00,120.00,VWS V14.01,2013-09-27 17:00:00,
2013-09-27 13:03:00,70.3,58.4,30.28,SW,222,0.0,0.0,66,0.00,,SCT,0.00,162.00,VWS V14.01,2013-09-27 17:03:00,
2013-09-27 13:08:00,70.3,58.8,30.28,SW,222,0.0,0.0,67,0.00,,SCT,0.00,162.00,VWS V14.01,2013-09-27 17:08:00,
2013-09-27 13:13:00,70.4,59.3,30.28,WSW,242,0.0,0.0,68,0.00,,SCT,0.00,200.00,VWS V14.01,2013-09-27 17:13:00,
2013-09-27 13:18:00,70.7,59.6,30.28,WSW,242,0.0,0.0,68,0.00,,SCT,0.00,262.00,VWS V14.01,2013-09-27 17:18:00,
2013-09-27 13:23:00,70.8,59.3,30.28,SW,235,0.0,0.0,67,0.00,,SCT,0.00,118.00,VWS V14.01,2013-09-27 17:23:00,
2013-09-27 13:26:00,70.8,58.9,30.28,West,265,0.0,0.0,66,0.00,,SCT,0.00,178.00,VWS V14.01,2013-09-27 17:26:00,
2013-09-27 13:31:00,71.2,59.3,30.27,West,259,0.0,0.0,66,0.00,,SCT,0.00,838.00,VWS V14.01,2013-09-27 17:31:00,
2013-09-27 13:36:00,71.8,59.0,30.27,NNW,327,0.0,0.0,64,0.00,,SCT,0.00,237.00,VWS V14.01,2013-09-27 17:36:00,
2013-09-27 13:41:00,72.2,58.9,30.27,North,5,0.0,0.0,63,0.00,,SCT,0.00,174.00,VWS V14.01,2013-09-27 17:41:00,
2013-09-27 13:46:00,72.2,58.9,30.27,WSW,242,0.0,0.0,63,0.00,,SCT,0.00,155.00,VWS V14.01,2013-09-27 17:46:00,
2013-09-27 13:51:00,71.8,59.0,30.27,West,266,0.0,0.0,64,0.00,,SCT,0.00,211.00,VWS V14.01,2013-09-27 17:51:00,
2013-09-27 13:56:00,71.7,58.9,30.27,WSW,250,0.0,0.0,64,0.00,,SCT,0.00,130.00,VWS V14.01,2013-09-27 17:56:00,
2013-09-27 14:00:00,71.8,59.0,30.27,WSW,250,0.0,0.0,64,0.00,,SCT,0.00,323.00,VWS V14.01,2013-09-27 18:00:00,
2013-09-27 14:01:00,71.8,58.5,30.27,WSW,247,0.0,0.0,63,0.00,,SCT,0.00,190.00,VWS V14.01,2013-09-27 18:01:00,
2013-09-27 14:06:00,71.7,58.5,30.26,SSW,213,0.0,0.0,63,0.00,,SCT,0.00,123.00,VWS V14.01,2013-09-27 18:06:00,
2013-09-27 14:11:00,71.7,58.9,30.26,WSW,240,0.0,0.0,64,0.00,,SCT,0.00,109.00,VWS V14.01,2013-09-27 18:11:00,
2013-09-27 14:16:00,71.3,58.9,30.26,West,271,0.0,0.0,65,0.00,,SCT,0.00,169.00,VWS V14.01,2013-09-27 18:16:00,
2013-09-27 14:21:00,71.5,59.1,30.26,WSW,242,0.0,0.0,65,0.00,,SCT,0.00,867.00,VWS V14.01,2013-09-27 18:21:00,
2013-09-27 14:26:00,71.7,59.3,30.26,SW,227,0.0,0.0,65,0.00,,SCT,0.00,283.00,VWS V14.01,2013-09-27 18:26:00,
2013-09-27 14:31:00,71.8,59.0,30.26,WSW,242,0.0,0.0,64,0.00,,SCT,0.00,392.00,VWS V14.01,2013-09-27 18:31:00,
2013-09-27 14:36:00,71.8,58.5,30.26,South,179,0.0,0.0,63,0.00,,SCT,0.00,255.00,VWS V14.01,2013-09-27 18:36:00,
2013-09-27 14:41:00,71.9,58.6,30.26,WSW,248,0.0,0.0,63,0.00,,SCT,0.00,197.00,VWS V14.01,2013-09-27 18:41:00,
2013-09-27 14:46:00,71.7,58.5,30.26,WSW,240,0.0,0.0,63,0.00,,SCT,0.00,128.00,VWS V14.01,2013-09-27 18:46:00,
2013-09-27 14:51:00,71.3,58.5,30.26,WSW,249,0.0,0.0,64,0.00,,SCT,0.00,90.00,VWS V14.01,2013-09-27 18:51:00,
2013-09-27 14:56:00,71.1,58.8,30.26,WSW,252,0.0,0.0,65,0.00,,SCT,0.00,93.00,VWS V14.01,2013-09-27 18:56:00,
2013-09-27 15:00:00,71.3,58.1,30.26,WSW,253,0.0,0.0,63,0.00,,SCT,0.00,90.00,VWS V14.01,2013-09-27 19:00:00,
2013-09-27 15:01:00,71.1,59.2,30.26,West,262,0.0,0.0,66,0.00,,SCT,0.00,116.00,VWS V14.01,2013-09-27 19:01:00,
2013-09-27 15:06:00,71.0,59.1,30.26,West,261,0.0,0.0,66,0.00,,SCT,0.00,206.00,VWS V14.01,2013-09-27 19:06:00,
2013-09-27 15:11:00,71.1,58.3,30.26,WSW,252,0.0,0.0,64,0.00,,SCT,0.00,148.00,VWS V14.01,2013-09-27 19:11:00,
2013-09-27 15:15:00,71.2,58.8,30.26,WSW,252,0.0,0.0,65,0.00,,SCT,0.00,181.00,VWS V14.01,2013-09-27 19:15:00,
2013-09-27 15:20:00,71.3,58.9,30.26,SW,235,0.0,0.0,65,0.00,,SCT,0.00,229.00,VWS V14.01,2013-09-27 19:20:00,
2013-09-27 15:25:00,71.3,59.4,30.26,West,259,0.0,0.0,66,0.00,,SCT,0.00,244.00,VWS V14.01,2013-09-27 19:25:00,
2013-09-27 15:30:00,71.2,59.7,30.26,WSW,248,0.0,0.0,67,0.00,,SCT,0.00,278.00,VWS V14.01,2013-09-27 19:30:00,
2013-09-27 15:35:00,71.1,60.4,30.26,WSW,240,0.0,0.0,69,0.00,,SCT,0.00,316.00,VWS V14.01,2013-09-27 19:35:00,
2013-09-27 15:40:00,71.1,59.6,30.26,SW,234,0.0,0.0,67,0.00,,SCT,0.00,294.00,VWS V14.01,2013-09-27 19:40:00,
2013-09-27 15:45:00,71.0,59.1,30.26,WSW,245,0.0,0.0,66,0.00,,SCT,0.00,239.00,VWS V14.01,2013-09-27 19:45:00,
2013-09-27 15:50:00,70.9,59.4,30.26,WSW,239,0.0,0.0,67,0.00,,SCT,0.00,232.00,VWS V14.01,2013-09-27 19:50:00,
2013-09-27 15:55:00,71.0,59.5,30.26,WSW,242,0.0,0.0,67,0.00,,SCT,0.00,258.00,VWS V14.01,2013-09-27 19:55:00,
2013-09-27 16:00:00,71.1,59.2,30.26,WSW,257,0.0,0.0,66,0.00,,SCT,0.00,258.00,VWS V14.01,2013-09-27 20:00:00,
2013-09-27 16:05:00,71.3,59.8,30.26,West,268,0.0,0.0,67,0.00,,SCT,0.00,251.00,VWS V14.01,2013-09-27 20:05:00,
2013-09-27 16:10:00,71.3,59.4,30.26,WSW,250,0.0,0.0,66,0.00,,SCT,0.00,230.00,VWS V14.01,2013-09-27 20:10:00,
2013-09-27 16:15:00,71.3,59.8,30.26,WSW,254,0.0,0.0,67,0.00,,SCT,0.00,288.00,VWS V14.01,2013-09-27 20:15:00,
2013-09-27 16:20:00,71.3,60.2,30.26,WSW,244,0.0,0.0,68,0.00,,SCT,0.00,199.00,VWS V14.01,2013-09-27 20:20:00,
2013-09-27 16:25:00,71.3,59.4,30.26,WSW,256,0.0,0.0,66,0.00,,SCT,0.00,185.00,VWS V14.01,2013-09-27 20:25:00,
2013-09-27 16:30:00,71.2,59.7,30.26,WSW,254,0.0,0.0,67,0.00,,SCT,0.00,183.00,VWS V14.01,2013-09-27 20:30:00,
2013-09-27 16:35:00,71.0,59.9,30.26,WSW,256,0.0,0.0,68,0.00,,SCT,0.00,176.00,VWS V14.01,2013-09-27 20:35:00,
2013-09-27 16:40:00,71.0,60.3,30.26,WSW,258,0.0,0.0,69,0.00,,SCT,0.00,278.00,VWS V14.01,2013-09-27 20:40:00,
2013-09-27 16:45:00,71.0,59.9,30.26,West,261,0.0,0.0,68,0.00,,SCT,0.00,441.00,VWS V14.01,2013-09-27 20:45:00,
2013-09-27 16:50:00,71.1,60.4,30.26,WNW,286,0.0,0.0,69,0.00,,SCT,0.00,179.00,VWS V14.01,2013-09-27 20:50:00,
2013-09-27 16:55:00,71.2,60.5,30.26,West,278,0.0,0.0,69,0.00,,SCT,0.00,183.00,VWS V14.01,2013-09-27 20:55:00,
2013-09-27 17:00:00,71.2,60.1,30.26,WSW,258,0.0,0.0,68,0.00,,SCT,0.00,401.00,VWS V14.01,2013-09-27 21:00:00,
2013-09-27 17:05:00,71.3,59.8,30.26,WSW,251,0.0,0.0,67,0.00,,SCT,0.00,387.00,VWS V14.01,2013-09-27 21:05:00,
2013-09-27 17:10:00,71.3,59.8,30.26,WSW,250,0.0,0.0,67,0.00,,SCT,0.00,236.00,VWS V14.01,2013-09-27 21:10:00,
2013-09-27 17:15:00,71.3,60.2,30.26,WSW,254,0.0,0.0,68,0.00,,SCT,0.00,128.00,VWS V14.01,2013-09-27 21:15:00,
2013-09-27 17:20:00,71.0,59.9,30.26,West,261,0.0,0.0,68,0.00,,SCT,0.00,109.00,VWS V14.01,2013-09-27 21:20:00,
2013-09-27 17:25:00,70.8,60.1,30.26,WSW,254,0.0,0.0,69,0.00,,SCT,0.00,100.00,VWS V14.01,2013-09-27 21:25:00,
2013-09-27 17:30:00,70.6,60.0,30.26,West,273,0.0,0.0,69,0.00,,SCT,0.00,107.00,VWS V14.01,2013-09-27 21:30:00,
2013-09-27 17:35:00,70.6,60.3,30.26,West,272,0.0,0.0,70,0.00,,SCT,0.00,104.00,VWS V14.01,2013-09-27 21:35:00,
2013-09-27 17:40:00,70.6,60.8,30.26,West,272,0.0,0.0,71,0.00,,SCT,0.00,100.00,VWS V14.01,2013-09-27 21:40:00,
2013-09-27 17:45:00,70.5,60.7,30.26,West,272,0.0,0.0,71,0.00,,SCT,0.00,95.00,VWS V14.01,2013-09-27 21:45:00,
2013-09-27 17:50:00,70.2,61.5,30.26,West,277,0.0,0.0,74,0.00,,SCT,0.00,90.00,VWS V14.01,2013-09-27 21:50:00,
2013-09-27 17:55:00,70.0,61.0,30.26,West,277,0.0,0.0,73,0.00,,SCT,0.00,81.00,VWS V14.01,2013-09-27 21:55:00,
2013-09-27 18:00:00,69.9,60.9,30.26,West,277,0.0,0.0,73,0.00,,SCT,0.00,77.00,VWS V14.01,2013-09-27 22:00:00,
2013-09-27 18:05:00,69.8,61.5,30.26,West,278,0.0,0.0,75,0.00,,SCT,0.00,72.00,VWS V14.01,2013-09-27 22:05:00,
2013-09-27 18:10:00,69.5,61.2,30.26,West,279,0.0,0.0,75,0.00,,SCT,0.00,70.00,VWS V14.01,2013-09-27 22:10:00,
2013-09-27 18:15:00,69.5,61.6,30.26,West,279,0.0,0.0,76,0.00,,SCT,0.00,60.00,VWS V14.01,2013-09-27 22:15:00,
2013-09-27 18:20:00,69.5,62.0,30.27,West,280,0.0,0.0,77,0.00,,SCT,0.00,47.00,VWS V14.01,2013-09-27 22:20:00,
2013-09-27 18:25:00,69.4,61.9,30.27,West,280,0.0,0.0,77,0.00,,SCT,0.00,26.00,VWS V14.01,2013-09-27 22:25:00,
2013-09-27 18:30:00,69.3,62.2,30.27,West,280,0.0,0.0,78,0.00,,SCT,0.00,23.00,VWS V14.01,2013-09-27 22:30:00,
2013-09-27 18:35:00,68.9,62.1,30.27,West,280,0.0,0.0,79,0.00,,SCT,0.00,19.00,VWS V14.01,2013-09-27 22:35:00,
2013-09-27 18:40:00,68.3,61.9,30.27,WNW,296,0.0,0.0,80,0.00,,SCT,0.00,14.00,VWS V14.01,2013-09-27 22:40:00,
2013-09-27 18:45:00,67.7,61.7,30.27,West,281,0.0,0.0,81,0.00,,SCT,0.00,11.00,VWS V14.01,2013-09-27 22:45:00,
2013-09-27 18:50:00,67.2,61.2,30.27,West,271,0.0,0.0,81,0.00,,SCT,0.00,7.00,VWS V14.01,2013-09-27 22:50:00,
2013-09-27 18:55:00,67.0,61.0,30.27,West,263,0.0,0.0,81,0.00,,SCT,0.00,5.00,VWS V14.01,2013-09-27 22:55:00,
2013-09-27 19:00:00,66.8,60.4,30.27,West,263,0.0,0.0,80,0.00,,SCT,0.00,0.00,VWS V14.01,2013-09-27 23:00:00,
2013-09-27 19:05:00,66.7,60.7,30.27,West,267,0.0,0.0,81,0.00,,SCT,0.00,0.00,VWS V14.01,2013-09-27 23:05:00,
2013-09-27 19:10:00,66.5,61.2,30.27,West,275,0.0,0.0,83,0.00,,SCT,0.00,0.00,VWS V14.01,2013-09-27 23:10:00,
2013-09-27 19:15:00,66.0,61.0,30.27,WNW,299,0.0,0.0,84,0.00,,SCT,0.00,0.00,VWS V14.01,2013-09-27 23:15:00,
2013-09-27 19:20:00,65.8,60.5,30.27,WNW,303,0.0,0.0,83,0.00,,SCT,0.00,0.00,VWS V14.01,2013-09-27 23:20:00,
2013-09-27 19:25:00,65.6,60.3,30.28,NW,315,0.0,0.0,83,0.00,,SCT,0.00,0.00,VWS V14.01,2013-09-27 23:25:00,
2013-09-27 19:30:00,65.4,60.1,30.28,NW,315,0.0,0.0,83,0.00,,SCT,0.00,0.00,VWS V14.01,2013-09-27 23:30:00,
2013-09-27 19:35:00,65.3,60.0,30.28,NW,315,0.0,0.0,83,0.00,,SCT,0.00,0.00,VWS V14.01,2013-09-27 23:35:00,
2013-09-27 19:40:00,65.2,60.2,30.28,NW,314,0.0,0.0,84,0.00,,SCT,0.00,0.00,VWS V14.01,2013-09-27 23:40:00,
2013-09-27 19:45:00,64.9,60.3,30.28,NW,312,0.0,0.0,85,0.00,,SCT,0.00,0.00,VWS V14.01,2013-09-27 23:45:00,
2013-09-27 19:50:00,64.6,60.0,30.28,NW,312,0.0,0.0,85,0.00,,SCT,0.00,0.00,VWS V14.01,2013-09-27 23:50:00,
2013-09-27 19:55:00,64.5,59.9,30.28,NW,312,0.0,0.0,85,0.00,,SCT,0.00,0.00,VWS V14.01,2013-09-27 23:55:00,
2013-09-27 20:00:00,64.5,60.2,30.28,NW,312,0.0,0.0,86,0.00,,SCT,0.00,0.00,VWS V14.01,2013-09-28 00:00:00,
2013-09-27 20:05:00,64.5,60.2,30.28,NW,312,0.0,0.0,86,0.00,,SCT,0.00,0.00,VWS V14.01,2013-09-28 00:05:00,
2013-09-27 20:10:00,64.4,60.1,30.28,NW,312,0.0,0.0,86,0.00,,SCT,0.00,0.00,VWS V14.01,2013-09-28 00:10:00,
2013-09-27 20:15:00,64.4,60.5,30.28,NNW,332,0.0,0.0,87,0.00,,SCT,0.00,0.00,VWS V14.01,2013-09-28 00:15:00,
2013-09-27 20:20:00,64.3,60.3,30.29,NNW,332,0.0,0.0,87,0.00,,SCT,0.00,0.00,VWS V14.01,2013-09-28 00:20:00,
2013-09-27 20:25:00,64.2,60.3,30.29,NNW,332,0.0,0.0,87,0.00,,SCT,0.00,0.00,VWS V14.01,2013-09-28 00:25:00,
2013-09-27 20:30:00,64.1,60.2,30.29,NNW,332,0.0,0.0,87,0.00,,SCT,0.00,0.00,VWS V14.01,2013-09-28 00:30:00,
2013-09-27 20:35:00,64.1,60.5,30.29,NNW,332,0.0,0.0,88,0.00,,SCT,0.00,0.00,VWS V14.01,2013-09-28 00:35:00,
2013-09-27 20:40:00,64.0,60.4,30.29,NNW,332,0.0,0.0,88,0.00,,SCT,0.00,0.00,VWS V14.01,2013-09-28 00:40:00,
2013-09-27 20:45:00,64.0,60.4,30.30,NNW,332,0.0,0.0,88,0.00,,SCT,0.00,0.00,VWS V14.01,2013-09-28 00:45:00,
2013-09-27 20:50:00,63.9,60.3,30.30,NNW,332,0.0,0.0,88,0.00,,SCT,0.00,0.00,VWS V14.01,2013-09-28 00:50:00,
2013-09-27 20:55:00,63.9,60.3,30.30,NNW,332,0.0,0.0,88,0.00,,SCT,0.00,0.00,VWS V14.01,2013-09-28 00:55:00,
2013-09-27 21:00:00,63.9,60.3,30.30,East,92,0.0,0.0,88,0.00,,SCT,0.00,0.00,VWS V14.01,2013-09-28 01:00:00,
2013-09-27 21:05:00,63.9,60.3,30.30,East,92,0.0,0.0,88,0.00,,SCT,0.00,0.00,VWS V14.01,2013-09-28 01:05:00,
2013-09-27 21:10:00,63.9,60.3,30.30,East,92,0.0,0.0,88,0.00,,SCT,0.00,0.00,VWS V14.01,2013-09-28 01:10:00,
2013-09-27 21:15:00,63.8,60.2,30.30,East,92,0.0,0.0,88,0.00,,SCT,0.00,0.00,VWS V14.01,2013-09-28 01:15:00,
2013-09-27 21:20:00,63.7,60.4,30.31,East,92,0.0,0.0,89,0.00,,SCT,0.00,0.00,VWS V14.01,2013-09-28 01:20:00,
2013-09-27 21:25:00,63.6,60.3,30.31,East,92,0.0,0.0,89,0.00,,SCT,0.00,0.00,VWS V14.01,2013-09-28 01:25:00,
2013-09-27 21:30:00,63.6,60.3,30.31,East,92,0.0,0.0,89,0.00,,SCT,0.00,0.00,VWS V14.01,2013-09-28 01:30:00,
2013-09-27 21:35:00,63.6,60.3,30.31,East,96,0.0,0.0,89,0.00,,SCT,0.00,0.00,VWS V14.01,2013-09-28 01:35:00,
2013-09-27 21:40:00,63.6,60.3,30.31,East,96,0.0,0.0,89,0.00,,SCT,0.00,0.00,VWS V14.01,2013-09-28 01:40:00,
2013-09-27 21:45:00,63.6,60.3,30.31,East,96,0.0,0.0,89,0.00,,SCT,0.00,0.00,VWS V14.01,2013-09-28 01:45:00,
2013-09-27 21:50:00,63.5,60.2,30.32,East,96,0.0,0.0,89,0.00,,SCT,0.00,0.00,VWS V14.01,2013-09-28 01:50:00,
2013-09-27 21:55:00,63.4,60.1,30.32,East,96,0.0,0.0,89,0.00,,SCT,0.00,0.00,VWS V14.01,2013-09-28 01:55:00,
2013-09-27 22:00:00,63.4,60.1,30.32,East,96,0.0,0.0,89,0.00,,SCT,0.00,0.00,VWS V14.01,2013-09-28 02:00:00,
2013-09-27 22:05:00,63.3,60.0,30.32,East,96,0.0,0.0,89,0.00,,SCT,0.00,0.00,VWS V14.01,2013-09-28 02:05:00,
2013-09-27 22:10:00,63.3,60.0,30.32,East,96,0.0,0.0,89,0.00,,SCT,0.00,0.00,VWS V14.01,2013-09-28 02:10:00,
2013-09-27 22:15:00,63.3,60.3,30.32,East,96,0.0,0.0,90,0.00,,SCT,0.00,0.00,VWS V14.01,2013-09-28 02:15:00,
2013-09-27 22:20:00,63.3,60.3,30.32,East,96,0.0,0.0,90,0.00,,SCT,0.00,0.00,VWS V14.01,2013-09-28 02:20:00,
2013-09-27 22:25:00,63.2,60.2,30.33,East,96,0.0,0.0,90,0.00,,SCT,0.00,0.00,VWS V14.01,2013-09-28 02:25:00,
2013-09-27 22:30:00,63.2,60.2,30.33,East,96,0.0,0.0,90,0.00,,SCT,0.00,0.00,VWS V14.01,2013-09-28 02:30:00,
2013-09-27 22:35:00,63.1,60.1,30.33,East,96,0.0,0.0,90,0.00,,SCT,0.00,0.00,VWS V14.01,2013-09-28 02:35:00,
2013-09-27 22:40:00,63.1,60.1,30.33,East,96,0.0,0.0,90,0.00,,SCT,0.00,0.00,VWS V14.01,2013-09-28 02:40:00,
2013-09-27 22:45:00,63.1,60.1,30.33,East,96,0.0,0.0,90,0.00,,SCT,0.00,0.00,VWS V14.01,2013-09-28 02:45:00,
2013-09-27 22:50:00,63.0,60.0,30.33,East,96,0.0,0.0,90,0.00,,SCT,0.00,0.00,VWS V14.01,2013-09-28 02:50:00,
2013-09-27 22:55:00,62.9,60.2,30.33,East,96,0.0,0.0,91,0.00,,SCT,0.00,0.00,VWS V14.01,2013-09-28 02:55:00,
2013-09-27 23:00:00,62.8,60.1,30.33,East,96,0.0,0.0,91,0.00,,SCT,0.00,0.00,VWS V14.01,2013-09-28 03:00:00,
2013-09-27 23:05:00,62.8,60.1,30.33,East,96,0.0,0.0,91,0.00,,SCT,0.00,0.00,VWS V14.01,2013-09-28 03:05:00,
2013-09-27 23:10:00,62.7,60.0,30.33,East,96,0.0,0.0,91,0.00,,SCT,0.00,0.00,VWS V14.01,2013-09-28 03:10:00,
2013-09-27 23:15:00,62.7,60.0,30.33,East,96,0.0,0.0,91,0.00,,SCT,0.00,0.00,VWS V14.01,2013-09-28 03:15:00,
2013-09-27 23:20:00,62.6,59.9,30.33,East,96,0.0,0.0,91,0.00,,SCT,0.00,0.00,VWS V14.01,2013-09-28 03:20:00,
2013-09-27 23:25:00,62.6,59.9,30.33,East,96,0.0,0.0,91,0.00,,SCT,0.00,0.00,VWS V14.01,2013-09-28 03:25:00,
2013-09-27 23:30:00,62.5,59.8,30.33,East,96,0.0,0.0,91,0.00,,SCT,0.00,0.00,VWS V14.01,2013-09-28 03:30:00,
2013-09-27 23:35:00,62.5,59.8,30.33,East,96,0.0,0.0,91,0.00,,SCT,0.00,0.00,VWS V14.01,2013-09-28 03:35:00,
2013-09-27 23:40:00,62.4,60.0,30.34,East,96,0.0,0.0,92,0.00,,SCT,0.00,0.00,VWS V14.01,2013-09-28 03:40:00,
2013-09-27 23:45:00,62.4,60.0,30.34,East,96,0.0,0.0,92,0.00,,SCT,0.00,0.00,VWS V14.01,2013-09-28 03:45:00,
2013-09-27 23:50:00,62.4,60.0,30.34,East,96,0.0,0.0,92,0.00,,SCT,0.00,0.00,VWS V14.01,2013-09-28 03:50:00,
2013-09-27 23:55:00,62.3,60.0,30.34,East,96,0.0,0.0,92,0.00,,SCT,0.00,0.00,VWS V14.01,2013-09-28 03:55:00,